When you browse on this site, cookies collect data to enhance your experience and personalize the content and advertising you see.
Visit our Privacy Policy to learn more. By continuing to use the site, you agree to this use of cookies and data.
  • In Hungary
  • List of Countries
  • For 7 days
  • Water Temperature
  • Satellite Maps
  • Weather Map
  • News
  • Weather Widgets
  • user-avatar
    Login

    Hourly Weather Mooresville

    Today, 19 July, Friday

    Time Temperature Precipitation Wind Pressure Humidity
    00:00 +25°C° 0.1 mm 2 mps 738 mmHg 90%
    01:00 +25°C° 0.1 mm 2 mps 738 mmHg 92%
    02:00 +25°C° 0 mm 2 mps 738 mmHg 92%
    03:00 +24°C° 0 mm 1 mps 738 mmHg 91%
    04:00 +24°C° 0 mm 1 mps 738 mmHg 91%
    05:00 +25°C° 0 mm 1 mps 738 mmHg 89%
    06:00 +25°C° 0 mm 1 mps 739 mmHg 88%
    07:00 +24°C° 0 mm 0 mps 739 mmHg 86%
    08:00 +26°C° 0 mm 0 mps 739 mmHg 77%
    09:00 +28°C° 0 mm 0 mps 739 mmHg 67%
    10:00 +31°C° 0 mm 0 mps 740 mmHg 58%
    11:00 +32°C° 0 mm 0 mps 739 mmHg 54%
    12:00 +34°C° 0 mm 0 mps 739 mmHg 50%
    13:00 +35°C° 0 mm 0 mps 739 mmHg 45%
    14:00 +37°C° 0 mm 1 mps 739 mmHg 45%
    15:00 +36°C° 0 mm 1 mps 738 mmHg 45%
    16:00 +36°C° 0 mm 1 mps 738 mmHg 44%
    17:00 +35°C° 0 mm 1 mps 738 mmHg 50%
    18:00 +33°C° 0 mm 1 mps 738 mmHg 55%
    19:00 +32°C° 0 mm 1 mps 738 mmHg 61%
    20:00 +31°C° 0 mm 1 mps 738 mmHg 63%
    21:00 +30°C° 0 mm 1 mps 739 mmHg 66%
    22:00 +28°C° 0 mm 2 mps 739 mmHg 68%
    23:00 +28°C° 0 mm 2 mps 739 mmHg 72%

    Tomorrow, 20 July, Saturday

    Time Temperature Precipitation Wind Pressure Humidity
    00:00 +27°C° 0 mm 2 mps 739 mmHg 75%
    01:00 +26°C° 0 mm 2 mps 739 mmHg 78%
    02:00 +26°C° 0 mm 2 mps 738 mmHg 81%
    03:00 +26°C° 0 mm 1 mps 738 mmHg 83%
    04:00 +25°C° 0 mm 1 mps 738 mmHg 85%
    05:00 +26°C° 0 mm 1 mps 738 mmHg 83%
    06:00 +26°C° 0 mm 1 mps 739 mmHg 82%
    07:00 +27°C° 0 mm 1 mps 739 mmHg 80%
    08:00 +29°C° 0 mm 2 mps 739 mmHg 73%
    09:00 +31°C° 0 mm 2 mps 739 mmHg 65%
    10:00 +34°C° 0 mm 3 mps 740 mmHg 58%
    11:00 +35°C° 0 mm 3 mps 739 mmHg 52%
    12:00 +36°C° 0 mm 4 mps 739 mmHg 47%
    13:00 +37°C° 0 mm 4 mps 739 mmHg 42%
    14:00 +37°C° 0 mm 4 mps 739 mmHg 41%
    15:00 +37°C° 0 mm 4 mps 738 mmHg 40%
    16:00 +38°C° 0 mm 4 mps 738 mmHg 39%
    17:00 +36°C° 0 mm 4 mps 738 mmHg 45%
    18:00 +34°C° 0 mm 3 mps 738 mmHg 51%
    19:00 +31°C° 0 mm 3 mps 738 mmHg 57%
    20:00 +30°C° 0 mm 3 mps 738 mmHg 58%
    21:00 +30°C° 0 mm 3 mps 738 mmHg 60%
    22:00 +29°C° 0 mm 3 mps 739 mmHg 61%
    23:00 +28°C° 0 mm 3 mps 738 mmHg 64%

    Day after tomorrow, 21 July, Sunday

    Time Temperature Precipitation Wind Pressure Humidity
    00:00 +28°C° 0 mm 3 mps 738 mmHg 67%
    01:00 +27°C° 0 mm 3 mps 738 mmHg 69%
    02:00 +27°C° 0 mm 3 mps 738 mmHg 72%
    03:00 +26°C° 0 mm 3 mps 738 mmHg 75%
    04:00 +26°C° 0 mm 3 mps 738 mmHg 77%
    05:00 +26°C° 0 mm 3 mps 738 mmHg 76%
    06:00 +26°C° 0 mm 3 mps 738 mmHg 74%
    07:00 +27°C° 0 mm 4 mps 739 mmHg 72%
    08:00 +29°C° 0 mm 4 mps 739 mmHg 65%
    09:00 +32°C° 0 mm 4 mps 739 mmHg 57%
    10:00 +34°C° 0 mm 4 mps 739 mmHg 50%
    11:00 +35°C° 0 mm 5 mps 739 mmHg 46%
    12:00 +36°C° 0 mm 5 mps 738 mmHg 43%
    13:00 +37°C° 0 mm 5 mps 738 mmHg 40%
    14:00 +37°C° 0 mm 5 mps 737 mmHg 41%
    15:00 +37°C° 0 mm 5 mps 737 mmHg 42%
    16:00 +37°C° 0 mm 5 mps 737 mmHg 44%
    17:00 +35°C° 0 mm 5 mps 736 mmHg 50%
    18:00 +34°C° 0 mm 4 mps 736 mmHg 56%
    19:00 +32°C° 0 mm 4 mps 736 mmHg 61%
    20:00 +32°C° 0 mm 4 mps 736 mmHg 62%
    21:00 +30°C° 0 mm 4 mps 737 mmHg 63%
    22:00 +29°C° 0 mm 4 mps 737 mmHg 64%
    23:00 +28°C° 0.3 mm 3 mps 737 mmHg 69%

    22 July, Monday

    Time Temperature Precipitation Wind Pressure Humidity
    00:00 +27°C° 0.3 mm 2 mps 737 mmHg 74%
    01:00 +26°C° 0.3 mm 2 mps 736 mmHg 79%
    02:00 +26°C° 0.1 mm 2 mps 736 mmHg 81%
    03:00 +25°C° 0.1 mm 1 mps 736 mmHg 83%
    04:00 +25°C° 0.1 mm 1 mps 736 mmHg 86%
    05:00 +25°C° 0 mm 1 mps 736 mmHg 84%
    06:00 +26°C° 0 mm 2 mps 736 mmHg 83%
    07:00 +26°C° 0 mm 2 mps 736 mmHg 82%
    08:00 +28°C° 0.1 mm 2 mps 736 mmHg 76%
    09:00 +29°C° 0.1 mm 2 mps 737 mmHg 70%
    10:00 +31°C° 0.1 mm 3 mps 737 mmHg 63%
    11:00 +31°C° 1.4 mm 2 mps 737 mmHg 65%
    12:00 +31°C° 1.4 mm 2 mps 736 mmHg 67%
    13:00 +31°C° 1.4 mm 2 mps 736 mmHg 69%
    14:00 +30°C° 1 mm 2 mps 736 mmHg 71%
    15:00 +30°C° 1 mm 1 mps 736 mmHg 73%
    16:00 +30°C° 1 mm 1 mps 736 mmHg 74%
    17:00 +29°C° 1.5 mm 2 mps 736 mmHg 79%
    18:00 +27°C° 1.5 mm 2 mps 735 mmHg 84%
    19:00 +26°C° 1.5 mm 2 mps 735 mmHg 89%
    20:00 +25°C° 1.5 mm 2 mps 736 mmHg 90%
    21:00 +25°C° 1.5 mm 2 mps 736 mmHg 91%
    22:00 +24°C° 1.5 mm 1 mps 737 mmHg 92%
    23:00 +24°C° 0.5 mm 1 mps 737 mmHg 93%

    23 July, Tuesday

    Time Temperature Precipitation Wind Pressure Humidity
    00:00 +24°C° 0.5 mm 1 mps 737 mmHg 93%
    01:00 +24°C° 0.5 mm 1 mps 737 mmHg 93%
    02:00 +23°C° 0.1 mm 1 mps 737 mmHg 92%
    03:00 +21°C° 0.1 mm 2 mps 737 mmHg 91%
    04:00 +21°C° 0.1 mm 2 mps 737 mmHg 91%
    05:00 +21°C° 0.2 mm 2 mps 737 mmHg 90%
    06:00 +20°C° 0.2 mm 2 mps 737 mmHg 90%
    07:00 +20°C° 0.2 mm 2 mps 738 mmHg 89%
    08:00 +21°C° 0 mm 2 mps 738 mmHg 84%
    09:00 +24°C° 0 mm 2 mps 738 mmHg 79%
    10:00 +25°C° 0 mm 2 mps 738 mmHg 73%
    11:00 +26°C° 0.1 mm 2 mps 738 mmHg 70%
    12:00 +27°C° 0.1 mm 2 mps 738 mmHg 66%
    13:00 +29°C° 0.1 mm 2 mps 738 mmHg 62%
    14:00 +29°C° 0.2 mm 2 mps 738 mmHg 62%
    15:00 +29°C° 0.2 mm 3 mps 738 mmHg 62%
    16:00 +29°C° 0.2 mm 3 mps 738 mmHg 62%
    17:00 +28°C° 0.2 mm 2 mps 738 mmHg 68%
    18:00 +26°C° 0.2 mm 2 mps 738 mmHg 74%
    19:00 +25°C° 0.2 mm 2 mps 738 mmHg 80%
    20:00 +24°C° 0 mm 2 mps 739 mmHg 81%
    21:00 +23°C° 0 mm 2 mps 739 mmHg 83%
    22:00 +21°C° 0 mm 2 mps 739 mmHg 85%
    23:00 +21°C° 0 mm 2 mps 739 mmHg 87%

    24 July, Wednesday

    Time Temperature Precipitation Wind Pressure Humidity
    00:00 +21°C° 0 mm 2 mps 739 mmHg 88%
    01:00 +20°C° 0 mm 2 mps 739 mmHg 89%
    02:00 +20°C° 0 mm 2 mps 739 mmHg 89%
    03:00 +20°C° 0 mm 2 mps 739 mmHg 89%
    04:00 +19°C° 0 mm 2 mps 739 mmHg 89%
    05:00 +20°C° 0 mm 3 mps 740 mmHg 87%
    06:00 +20°C° 0 mm 3 mps 740 mmHg 86%
    07:00 +20°C° 0 mm 3 mps 741 mmHg 84%
    08:00 +22°C° 0 mm 3 mps 741 mmHg 76%
    09:00 +25°C° 0 mm 4 mps 741 mmHg 68%
    10:00 +26°C° 0 mm 4 mps 742 mmHg 60%
    11:00 +27°C° 0 mm 4 mps 742 mmHg 56%
    12:00 +28°C° 0 mm 4 mps 742 mmHg 52%
    13:00 +28°C° 0 mm 4 mps 742 mmHg 48%
    14:00 +29°C° 0 mm 4 mps 741 mmHg 47%
    15:00 +29°C° 0 mm 4 mps 741 mmHg 47%
    16:00 +29°C° 0 mm 4 mps 741 mmHg 46%
    17:00 +28°C° 0 mm 3 mps 741 mmHg 53%
    18:00 +26°C° 0 mm 2 mps 741 mmHg 59%
    19:00 +25°C° 0 mm 2 mps 741 mmHg 65%
    20:00 +24°C° 0 mm 2 mps 742 mmHg 68%
    21:00 +23°C° 0 mm 2 mps 742 mmHg 70%
    22:00 +21°C° 0 mm 2 mps 742 mmHg 72%
    23:00 +20°C° 0 mm 2 mps 742 mmHg 73%
    Show more